| time (UTC) | temp F | wind direction | speed knots | gust knots | rain 1hr in | rain 24hr in | rain mn in | humidity % | barometer mb |
| 20260509220356 | 0 | 0.0 | 0.0 | 0.00 | 0.00 | 0.00 | |||
| 20260509214854 | 57 | 120 | 6.1 | 0.0 | 0.00 | 0.00 | 0.00 | 94 | 1015.0 |
| 20260509213359 | 57 | 120 | 6.1 | 0.0 | 0.00 | 0.00 | 0.00 | 94 | 1015.0 |
| 20260509211854 | 0 | 0.0 | 0.0 | 0.00 | 0.00 | 0.00 | |||
| 20260509210359 | 0 | 0.0 | 0.0 | 0.00 | 0.00 | 0.00 | |||
| 20260509204906 | 57 | 120 | 6.1 | 0.0 | 0.00 | 0.00 | 0.00 | 94 | 1015.0 |
| 20260509203400 | 57 | 120 | 6.1 | 0.0 | 0.00 | 0.00 | 0.00 | 94 | 1015.0 |
| 20260509201857 | 57 | 120 | 6.1 | 0.0 | 0.00 | 0.00 | 0.00 | 94 | 1015.0 |
| 20260509200359 | 0 | 0.0 | 0.0 | 0.00 | 0.00 | 0.00 | |||
| 20260509194857 | 57 | 110 | 6.1 | 0.0 | 0.00 | 0.00 | 0.00 | 94 | 1015.0 |
| 20260509193359 | 57 | 110 | 6.1 | 0.0 | 0.00 | 0.00 | 0.00 | 94 | 1015.0 |
| 20260509191856 | 57 | 110 | 6.1 | 0.0 | 0.00 | 0.00 | 0.00 | 94 | 1015.0 |
| 20260509190359 | 57 | 110 | 6.1 | 0.0 | 0.00 | 0.00 | 0.00 | 94 | 1015.0 |
| 20260509184900 | 59 | 110 | 7.8 | 0.0 | 0.00 | 0.00 | 0.00 | 88 | 1014.0 |
| 20260509183400 | 59 | 110 | 7.8 | 0.0 | 0.00 | 0.00 | 0.00 | 88 | 1014.0 |
| 20260509181900 | 59 | 110 | 7.8 | 0.0 | 0.00 | 0.00 | 0.00 | 88 | 1014.0 |
| 20260509180400 | 59 | 110 | 7.8 | 0.0 | 0.00 | 0.00 | 0.00 | 88 | 1014.0 |
| 20260509174900 | 61 | 110 | 9.6 | 0.0 | 0.00 | 0.00 | 0.00 | 83 | 1014.0 |
| 20260509173401 | 61 | 110 | 9.6 | 0.0 | 0.00 | 0.00 | 0.00 | 83 | 1014.0 |
| 20260509171857 | 61 | 110 | 9.6 | 0.0 | 0.00 | 0.00 | 0.00 | 83 | 1014.0 |
| 20260509170400 | 61 | 110 | 9.6 | 0.0 | 0.00 | 0.00 | 0.00 | 83 | 1014.0 |
| 20260509164853 | 63 | 110 | 12.2 | 0.0 | 0.00 | 0.00 | 0.00 | 73 | 1014.0 |
| 20260509163400 | 63 | 110 | 12.2 | 0.0 | 0.00 | 0.00 | 0.00 | 73 | 1014.0 |
| 20260509161856 | 63 | 110 | 12.2 | 0.0 | 0.00 | 0.00 | 0.00 | 73 | 1014.0 |
| 20260509160359 | 63 | 110 | 12.2 | 0.0 | 0.00 | 0.00 | 0.00 | 73 | 1014.0 |
| 20260509154900 | 64 | 110 | 12.2 | 0.0 | 0.00 | 0.00 | 0.00 | 73 | 1014.0 |
| 20260509153359 | 64 | 110 | 12.2 | 0.0 | 0.00 | 0.00 | 0.00 | 73 | 1014.0 |
| 20260509151900 | 64 | 110 | 12.2 | 0.0 | 0.00 | 0.00 | 0.00 | 73 | 1014.0 |
| 20260509150400 | 64 | 110 | 12.2 | 0.0 | 0.00 | 0.00 | 0.00 | 73 | 1014.0 |
| 20260509144900 | 64 | 120 | 12.2 | 0.0 | 0.00 | 0.00 | 0.00 | 73 | 1014.0 |
| 20260509143359 | 64 | 120 | 12.2 | 0.0 | 0.00 | 0.00 | 0.00 | 73 | 1014.0 |
| 20260509141856 | 64 | 120 | 12.2 | 0.0 | 0.00 | 0.00 | 0.00 | 73 | 1014.0 |
| 20260509140400 | 64 | 120 | 12.2 | 0.0 | 0.00 | 0.00 | 0.00 | 73 | 1014.0 |
| 20260509134900 | 63 | 120 | 12.2 | 0.0 | 0.00 | 0.00 | 0.00 | 77 | 1014.0 |
| 20260509133400 | 63 | 120 | 12.2 | 0.0 | 0.00 | 0.00 | 0.00 | 77 | 1014.0 |
| 20260509131857 | 63 | 120 | 12.2 | 0.0 | 0.00 | 0.00 | 0.00 | 77 | 1014.0 |
| 20260509130359 | 0 | 0.0 | 0.0 | 0.00 | 0.00 | 0.00 | |||
| 20260509124900 | 64 | 120 | 12.2 | 0.0 | 0.00 | 0.00 | 0.00 | 78 | 1014.0 |
| 20260509123400 | 64 | 120 | 12.2 | 0.0 | 0.00 | 0.00 | 0.00 | 78 | 1014.0 |
| 20260509121850 | 64 | 120 | 12.2 | 0.0 | 0.00 | 0.00 | 0.00 | 78 | 1014.0 |
| 20260509120359 | 64 | 120 | 12.2 | 0.0 | 0.00 | 0.00 | 0.00 | 78 | 1014.0 |
| 20260509114856 | 64 | 120 | 9.6 | 0.0 | 0.00 | 0.00 | 0.00 | 78 | 1014.0 |
| 20260509113359 | 64 | 120 | 9.6 | 0.0 | 0.00 | 0.00 | 0.00 | 78 | 1014.0 |
| 20260509111900 | 64 | 120 | 9.6 | 0.0 | 0.00 | 0.00 | 0.00 | 78 | 1014.0 |
| 20260509110359 | 0 | 0.0 | 0.0 | 0.00 | 0.00 | 0.00 | |||
| 20260509104856 | 64 | 120 | 9.6 | 0.0 | 0.00 | 0.00 | 0.00 | 73 | 1014.0 |
| 20260509103400 | 64 | 120 | 9.6 | 0.0 | 0.00 | 0.00 | 0.00 | 73 | 1014.0 |
| 20260509101857 | 64 | 120 | 9.6 | 0.0 | 0.00 | 0.00 | 0.00 | 73 | 1014.0 |
| 20260509100400 | 64 | 120 | 9.6 | 0.0 | 0.00 | 0.00 | 0.00 | 73 | 1014.0 |
| 20260509094856 | 64 | 130 | 9.6 | 0.0 | 0.00 | 0.00 | 0.00 | 73 | 1015.0 |
| 20260509093359 | 64 | 130 | 9.6 | 0.0 | 0.00 | 0.00 | 0.00 | 73 | 1015.0 |
| 20260509092033 | 0 | 0.0 | 0.0 | 0.00 | 0.00 | 0.00 | |||
| 20260509090400 | 64 | 130 | 9.6 | 0.0 | 0.00 | 0.00 | 0.00 | 73 | 1015.0 |
| 20260509084853 | 66 | 130 | 12.2 | 0.0 | 0.00 | 0.00 | 0.00 | 73 | 1015.0 |
| 20260509083359 | 66 | 130 | 12.2 | 0.0 | 0.00 | 0.00 | 0.00 | 73 | 1015.0 |
| 20260509081928 | 66 | 130 | 12.2 | 0.0 | 0.00 | 0.00 | 0.00 | 73 | 1015.0 |
| 20260509080400 | 66 | 130 | 12.2 | 0.0 | 0.00 | 0.00 | 0.00 | 73 | 1015.0 |
| 20260509074900 | 61 | 110 | 9.6 | 0.0 | 0.00 | 0.00 | 0.00 | 83 | 1015.0 |
| 20260509073400 | 61 | 110 | 9.6 | 0.0 | 0.00 | 0.00 | 0.00 | 83 | 1015.0 |
| 20260509071859 | 61 | 110 | 9.6 | 0.0 | 0.00 | 0.00 | 0.00 | 83 | 1015.0 |
| 20260509070400 | 61 | 110 | 9.6 | 0.0 | 0.00 | 0.00 | 0.00 | 83 | 1015.0 |
| 20260509064856 | 57 | 110 | 9.6 | 0.0 | 0.00 | 0.00 | 0.00 | 94 | 1015.0 |
| 20260509063400 | 57 | 110 | 9.6 | 0.0 | 0.00 | 0.00 | 0.00 | 94 | 1015.0 |
| 20260509061853 | 57 | 110 | 9.6 | 0.0 | 0.00 | 0.00 | 0.00 | 94 | 1015.0 |
| 20260509060359 | 0 | 0.0 | 0.0 | 0.00 | 0.00 | 0.00 | |||
| 20260509054853 | 55 | 110 | 9.6 | 0.0 | 0.00 | 0.00 | 0.00 | 94 | 1015.0 |
| 20260509053359 | 55 | 110 | 9.6 | 0.0 | 0.00 | 0.00 | 0.00 | 94 | 1015.0 |
| 20260509051857 | 55 | 110 | 9.6 | 0.0 | 0.00 | 0.00 | 0.00 | 94 | 1015.0 |
| 20260509050359 | 55 | 110 | 9.6 | 0.0 | 0.00 | 0.00 | 0.00 | 94 | 1015.0 |
| 20260509044857 | 54 | 100 | 12.2 | 0.0 | 0.00 | 0.00 | 0.00 | 100 | 1015.0 |
| 20260509043400 | 54 | 100 | 12.2 | 0.0 | 0.00 | 0.00 | 0.00 | 100 | 1015.0 |
| 20260509041854 | 54 | 100 | 12.2 | 0.0 | 0.00 | 0.00 | 0.00 | 100 | 1015.0 |
| 20260509040400 | 54 | 100 | 12.2 | 0.0 | 0.00 | 0.00 | 0.00 | 100 | 1015.0 |
| 20260509034857 | 54 | 80 | 5.2 | 0.0 | 0.00 | 0.00 | 0.00 | 100 | 1014.0 |
| 20260509033359 | 54 | 80 | 5.2 | 0.0 | 0.00 | 0.00 | 0.00 | 100 | 1014.0 |
| 20260509031854 | 54 | 80 | 5.2 | 0.0 | 0.00 | 0.00 | 0.00 | 100 | 1014.0 |
| 20260509030400 | 54 | 80 | 5.2 | 0.0 | 0.00 | 0.00 | 0.00 | 100 | 1014.0 |
| 20260509024850 | 54 | 150 | 6.1 | 0.0 | 0.00 | 0.00 | 0.00 | 100 | 1016.0 |
| 20260509023356 | 54 | 150 | 6.1 | 0.0 | 0.00 | 0.00 | 0.00 | 100 | 1016.0 |
| 20260509021856 | 0 | 0.0 | 0.0 | 0.00 | 0.00 | 0.00 | |||
| 20260509020400 | 0 | 0.0 | 0.0 | 0.00 | 0.00 | 0.00 | |||
| 20260509014857 | 55 | 140 | 7.8 | 0.0 | 0.00 | 0.00 | 0.00 | 100 | 1015.0 |
| 20260509013357 | 55 | 140 | 7.8 | 0.0 | 0.00 | 0.00 | 0.00 | 100 | 1015.0 |
| 20260509011857 | 55 | 140 | 7.8 | 0.0 | 0.00 | 0.00 | 0.00 | 100 | 1015.0 |
| 20260509010359 | 55 | 140 | 7.8 | 0.0 | 0.00 | 0.00 | 0.00 | 100 | 1015.0 |
| 20260509004859 | 55 | 140 | 7.8 | 0.0 | 0.00 | 0.00 | 0.00 | 100 | 1015.0 |
| 20260509003359 | 55 | 160 | 7.8 | 0.0 | 0.00 | 0.00 | 0.00 | 94 | 1015.0 |
| 20260509001857 | 55 | 160 | 7.8 | 0.0 | 0.00 | 0.00 | 0.00 | 94 | 1015.0 |
| 20260509000359 | 55 | 160 | 7.8 | 0.0 | 0.00 | 0.00 | 0.00 | 94 | 1015.0 |
| 20260508234856 | 54 | 120 | 9.6 | 0.0 | 0.00 | 0.00 | 0.00 | 100 | 1015.0 |
| 20260508233359 | 54 | 120 | 9.6 | 0.0 | 0.00 | 0.00 | 0.00 | 100 | 1015.0 |
| 20260508231857 | 54 | 120 | 9.6 | 0.0 | 0.00 | 0.00 | 0.00 | 100 | 1015.0 |
| 20260508230400 | 0 | 0.0 | 0.0 | 0.00 | 0.00 | 0.00 | |||
| 20260508224856 | 54 | 120 | 12.2 | 0.0 | 0.00 | 0.00 | 0.00 | 100 | 1015.0 |
| 20260508223400 | 54 | 120 | 12.2 | 0.0 | 0.00 | 0.00 | 0.00 | 100 | 1015.0 |
| 20260508221857 | 54 | 120 | 12.2 | 0.0 | 0.00 | 0.00 | 0.00 | 100 | 1015.0 |